Hourly Data Report for October 03, 2013

All times are specified in Local Standard Time (LST). Add 1 hour to adjust for Daylight Saving Time where and when it is observed.

CLYDE RIVER A
NUNAVUT

70°29'09.000" N
68°31'01.000" W
26.50 m
2400804
71090
YCY

Download Data

Hourly Data (October 2013)
Hourly Data Report for October 3, 2013
Temp Definition
°C
Dew Point Temp Definition
°C
Rel Hum Definition
%
Wind Dir Definition
10's deg

Wind Spd Definition
km/h
Visibility Definition
km
Stn Press Definition
kPa
Hmdx Definition


Wind Chill Definition


Weather Definition


TIME
00:00 Legend Double Dagger -3.3 -4.1 94 33 24 4.8 100.81   -10 LegendNANA
01:00 Legend Double Dagger -3.1 -5.9 81 33 26 16.1 100.82   -10 LegendNANA
02:00 Legend Double Dagger -3.0 -3.9 94 30 37 9.7 100.82   -11 LegendNANA
03:00 Legend Double Dagger -2.5 -4.5 86 33 37 16.1 100.86   -10 LegendNANA
04:00 Legend Double Dagger -2.6 -5.1 83 33 35 16.1 100.91   -10 LegendNANA
05:00 Legend Double Dagger -2.6 -4.6 86 33 35 16.1 100.93   -10 LegendNANA
06:00 Legend Double Dagger -2.6 -4.2 89 33 32 9.7 100.98   -10 LegendNANA
07:00 Legend Double Dagger -2.3 -5.3 80 34 30 16.1 101.04   -9 LegendNANA
08:00 Legend Double Dagger -2.2 -5.4 79 34 18 16.1 101.07   -8 LegendNANA
09:00 Legend Double Dagger -2.8 -3.6 94 32 28 1.6 101.11   -10 LegendNANA
10:00 Legend Double Dagger -2.9 -4.6 88 31 18 16.1 101.15   -9 LegendNANA
11:00 Legend Double Dagger -2.2 -3.8 89 33 32 14.5 101.14   -10 LegendNANA
12:00 Legend Double Dagger -5.3 -6.8 89 31 18 16.1 101.19   -12 LegendNANA
13:00 Legend Double Dagger -3.3 -5.7 83 31 18 16.1 101.23   -9 LegendNANA
14:00 Legend Double Dagger -3.4 -4.6 91 29 18 16.1 101.27   -9 LegendNANA
15:00 Legend Double Dagger -3.1 -4.4 91 32 21 2.8 101.31   -9 LegendNANA
16:00 Legend Double Dagger -4.4 -5.8 90 28 18 16.1 101.34   -10 LegendNANA
17:00 Legend Double Dagger -3.8 -5.4 89 29 21 16.1 101.32   -10 LegendNANA
18:00 Legend Double Dagger -5.0 -6.6 89 21 9 16.1 101.35   -9 LegendNANA
19:00 Legend Double Dagger -3.5 -6.7 79 24 9 16.1 101.35   -7 LegendNANA
20:00 Legend Double Dagger -3.3 -7.6 72 25 9 16.1 101.35   -7 LegendNANA
21:00 Legend Double Dagger -2.4 -6.1 76 LegendMM 4 16.1 101.31   -4 LegendNANA
22:00 Legend Double Dagger -2.2 -6.8 71 20 9 16.1 101.29   -6 LegendNANA
23:00 Legend Double Dagger -5.2 -8.9 75 23 9 16.1 101.27   -9 LegendNANA

Notes on Data Quality.

Legend

  • E = Estimated
  • M = Missing
  • NA = Not Available
  • ‡ = Partner data that is not subject to review by the National Climate Archives
Date modified: